Location: Worth Mountain WMA
(34.9569°N, 81.4819°W)
Time: 18:27:48
(UTC-04:00)

S3M - Pass Details

Date: 18 August 2017
Orbit: 950 x 1003 km, 83.0° (Epoch: 21 September)

Event Time Altitude Azimuth Distance (km) Brightness Sun altitude
Rises 21:47:14 0° 350° (N) 3,676 7.6 -19.0°
Reaches altitude 10° 21:49:45 10° 349° (NNW) 2,732 6.9 -19.4°
Maximum altitude 21:55:58 70° 267° (W) 1,047 4.3 -20.5°
Enters shadow 22:01:50 12° 185° (S) 2,603 6.0 -21.5°
